Weather Roundup
Issued by NWS Chicago, IL

Home | Current Version | Previous Version | Graphics & Text | Print | Product List | Glossary On
Versions: 1 2 3 4 5 6 7 8 9 10 11 12 13 14 15 16 17 18 19 20 21 22 23 24 25 26 27 28 29 30 31 32 33 34 35 36 37 38 39 40 41 42 43 44 45 46 47 48 49 50
899
NZUS59 KLOT 262103
HRRLOT

CHICAGO AREA WEATHER ROUNDUP
NATIONAL WEATHER SERVICE CHICAGO/ROMEOVILLE IL
300 PM CST SUN FEB 26 2017

NOTE: "FAIR" INDICATES FEW OR NO CLOUDS BELOW 12,000 FEET WITH NO
SIGNIFICANT WEATHER AND/OR OBSTRUCTIONS TO VISIBILITY.

* THESE STATIONS ARE NOT UNDER NWS QUALITY CONTROL. THEY ALSO MAY NOT
  REPORT WEATHER SUCH AS PRECIPITATION OR FOG.

ILZ005-006-012>014-019>023-262200-
NORTHEAST ILLINOIS

CITY           SKY/WX    TMP DP  RH WIND       PRES   REMARKS
OHARE          MOSUNNY   49  20  31 SW23G33   29.92S
MIDWAY         MOSUNNY   49  19  30 SW17G36   29.94S
AURORA         SUNNY     48  23  37 SW18G29   29.93F
LANSING*       PTSUNNY   48  25  41 SW20      29.96S
JOLIET*        SUNNY     49  21  32 W10G22    29.96S
WAUKEGAN       SUNNY     46  21  37 W13G24    29.89S
DUPAGE AIRPORT MOSUNNY   48  21  34 W21G32    29.92F
WHEELING       SUNNY     47  18  31 W15G35    29.92S
KANKAKEE*      SUNNY     48  18  30 SW22G30   29.99S
MORRIS*        SUNNY     49  21  33 W18       29.95S
LEWIS AIRPORT* SUNNY     47  26  43 W15G28    29.95S
NORTHERLY ISL    N/A     46  16  30 W13         N/A
$$

WIZ051-052-058>065-066-070>072-262200-
SOUTHEAST WISCONSIN

CITY           SKY/WX    TMP DP  RH WIND       PRES   REMARKS
MILWAUKEE      MOSUNNY   44  23  43 W22G32    29.87S
KENOSHA*       SUNNY     45  26  47 W18G28    29.88S
RACINE*        SUNNY     45  23  42 W17G26    29.88F
WAUKESHA       MOSUNNY   39  25  56 SW17G26   29.86S
WEST BEND      SUNNY     39  28  65 W17       29.83S
$$

INZ001>003-010>013-019-020-262200-
NORTHWEST INDIANA

CITY           SKY/WX    TMP DP  RH WIND       PRES   REMARKS
GARY*          MOSUNNY   48  12  23 SW23G41   29.96F
MICHIGAN CITY* NOT AVBL
RENSSELAER*    NOT AVBL
VALPARAISO     PTSUNNY   49  20  31 SW23G31   29.98S
$$

LMZ740>746-262200-
SOUTHERN LAKE MICHIGAN

STATION/POSITION TIME  SKY/WX   TEMP WIND        PRES    VSBY
                                AIR  DIR/SP/G
                 (UTC)          (F)  (DEG/KT/KT) (MB)    (MI)
HARRISON CRIB    2040            46  250/ 15/ 21   N/A
BURNHAM HARBOR   2100            47  190/ 10/ 21   N/A
CALUMET HARBOR   2030            46  220/ 16/ 24 1013.4F
BURNS HARBOR     2040            46  230/ 18/ 30 1014.9R
MICHIGAN CITY    2040            44  200/ 24/ 28   N/A
$$

ABBREVIATIONS USED IN REMARKS
   TC - TEMPERATURE IN CELSIUS
  WCI - WIND CHILL INDEX
   HX - HEAT INDEX
  VSB - VISIBILITY
$$




USA.gov is the U.S. government's official web portal to all federal, state and local government web resources and services.